[[{"header":{"parameterUnit":"m.s-1","parameterCategory":1,"la1":30.2991,"la2":30.254,"lo1":-89.0895,"lo2":-89.0444,"dy":0.0017,"dx":0.0017,"nx":28,"ny":28,"refTime":"2024-03-10T03:00:00:Z","depth":0,"parameterNumber":2,"parameterNumberName":"U-component_of_WINDS"},"data":[0,0,0,0,0,0,0,0,0,0,0,0,0,0,0,0,0,0,0,0,0,0,0,0,0,0,0,0,0,0,0,0,0,0,0,0,0,0,0,0,0,0,0,0,0,0,0,0,0,0,0,0,0,0,0,0,0,0,-2.701,-2.7012,0,-2.7205,-2.7208,-2.721,-2.716,-2.7157,-2.7153,-2.7149,-2.7354,-2.7362,-2.7371,0,0,0,0,0,0,0,0,0,0,0,0,0,-2.6596,-2.6604,-2.701,-2.7012,-2.7015,-2.7205,-2.7208,-2.721,-2.7161,-2.7156,-2.7152,-2.7147,-2.7351,-2.7361,-2.7372,0,0,0,0,0,0,0,0,0,0,0,0,0,-2.6782,-2.6607,-2.7009,-2.7013,-2.7015,-2.7205,-2.7208,-2.7211,-2.7162,-2.7156,-2.715,-2.7145,-2.7347,-2.736,-2.7374,-2.7573,0,0,-2.7415,-2.7421,0,0,0,0,0,0,0,0,-2.6772,-2.6798,-2.701,-2.7013,-2.7016,-2.7152,-2.7137,-2.7333,-2.7164,-2.7106,-2.7149,-2.7142,-2.7292,-2.7309,-2.7359,-2.7583,-2.7591,-2.7416,-2.7425,-2.743,-2.7434,0,0,0,0,0,0,0,-2.6759,-2.6789,-2.7087,-2.7013,-2.7017,-2.7006,-2.7026,-2.7174,-2.7229,-2.7111,-2.7108,-2.7131,-2.7292,-2.7346,-2.7363,-2.7594,-2.7416,-2.7428,-2.7436,-2.7442,-2.7992,-2.7998,0,0,0,0,0,0,-2.6743,-2.6779,-2.7081,-2.7093,-2.6877,-2.7018,-2.704,-2.7115,-2.7227,-2.7239,-2.7136,-2.7128,-2.7326,-2.7348,-2.737,-2.7612,-2.743,-2.7443,-2.7451,-2.7985,-2.7993,-2.8,0,0,0,0,0,0,-2.6735,-2.6771,-2.7073,-2.6935,-2.6973,-2.7031,-2.7115,-2.7121,-2.7175,-2.7246,-2.7256,-2.7181,-2.7322,-2.7351,-2.7523,-2.7619,-2.7449,-2.7461,-2.7978,-2.7988,-2.7997,-2.8097,0,0,0,0,0,0,-2.6723,-2.6768,-2.6844,-2.6937,-2.698,-2.7222,-2.7121,-2.7129,-2.7198,-2.719,-2.7291,-2.7302,-2.732,-2.7503,-2.7536,-2.7634,-2.7472,-2.7969,-2.7982,-2.7993,-2.8086,-2.8109,-2.8129,0,0,0,0,0,-2.6708,-2.6865,-2.6848,-2.6885,-2.7076,-2.7227,-2.7252,-2.7268,-2.7206,-2.7283,-2.7329,-2.7299,-2.7602,-2.7521,-2.7558,-2.7662,-2.7963,-2.7978,-2.7993,-2.8076,-2.8104,-2.8128,0,0,0,0,0,0,-2.6784,-2.6878,-2.686,-2.7051,-2.7131,-2.7219,-2.7317,-2.7298,-2.7399,-2.7387,-2.7403,-2.7426,-2.7602,-2.7648,-2.7556,-2.786,-2.7774,-2.7797,-2.7824,-2.7852,-2.7873,-2.786,-2.7483,0,0,0,0,0,-2.6822,-2.6936,-2.7012,-2.7174,-2.7215,-2.7259,-2.7325,-2.733,-2.7415,-2.7449,-2.7507,-2.7592,-2.7706,-2.7781,-2.789,-2.809,-2.8113,-2.818,-2.8202,-2.8219,-2.824,-2.835,-2.8382,-2.8048,-2.8048,-2.8047,0,0,-2.6904,-2.6969,-2.704,-2.719,-2.7253,-2.7372,-2.7288,-2.7417,-2.7506,-2.7469,-2.7635,-2.768,-2.7775,-2.7963,-2.8048,-2.8007,-2.8336,-2.8238,-2.8251,-2.8263,-2.8368,-2.84,-2.8428,-2.8058,-2.8056,-2.8054,0,0,-2.7113,-2.7173,-2.7315,-2.7379,-2.7475,-2.7503,-2.7536,-2.7627,-2.7655,-2.7821,-2.7796,-2.7901,-2.8098,-2.8167,-2.8227,-2.8461,-2.8438,-2.8496,-2.8611,-2.8719,-2.8745,-2.8768,-2.8854,-2.8884,-2.8515,-2.8516,-2.8516,0,-2.7204,-2.7381,-2.739,-2.7522,-2.759,-2.7559,-2.7703,-2.7765,-2.7892,-2.794,-2.7891,-2.8136,-2.8198,-2.8401,-2.8458,-2.8508,-2.8548,-2.8486,-2.874,-2.8764,-2.8786,-2.8867,-2.8899,-2.8522,-2.8521,-2.8521,-2.852,0,-2.7487,-2.761,-2.7713,-2.7835,-2.7913,-2.8051,-2.8083,-2.8161,-2.8158,-2.8191,-2.8361,-2.8433,-2.8557,-2.8604,-2.8604,-2.8808,-2.878,-2.8735,-2.8649,-2.8824,-2.8901,-2.8932,-2.8532,-2.8529,-2.8527,-2.8526,0,0,-2.7754,-2.7877,-2.7915,-2.797,-2.8072,-2.8168,-2.8304,-2.8423,-2.849,-2.8578,-2.8694,-2.8859,-2.8818,-2.8887,-2.8893,-2.8987,-2.917,-2.8932,-2.8934,-2.8976,-2.9401,-2.9436,-2.9472,-2.9153,-2.9159,-2.9164,-2.9394,0,-2.7974,-2.8212,-2.8225,-2.8442,-2.8556,-2.8527,-2.8646,-2.8722,-2.8756,-2.8859,-2.8896,-2.9014,-2.895,-2.8992,-2.9083,-2.9128,-2.9256,-2.9111,-2.9263,-2.9268,-2.9243,-2.9512,-2.9549,-2.9763,-2.9424,-2.9429,-2.9433,0,-2.8264,-2.836,-2.8588,-2.8673,-2.8722,-2.8828,-2.8938,-2.9036,-2.9121,-2.9139,-2.9215,-2.9208,-2.9348,-2.9254,-2.9448,-2.9349,-2.9411,-2.9442,-2.9451,-2.9468,-2.9363,-2.9539,-2.9831,-2.9865,-2.948,-2.9476,-2.9473,0,-2.8439,-2.8624,-2.8784,-2.8832,-2.8935,-2.901,-2.9057,-2.9136,-2.9207,-2.9303,-2.9349,-2.946,-2.9522,-2.9609,-2.9632,-2.9561,-2.9826,-2.9733,-2.9847,-2.9846,-2.9907,-2.9903,-3.0216,-2.9942,-2.9941,-2.9941,-2.994,0,-2.8686,-2.8827,-2.8864,-2.8963,-2.9121,-2.9133,-2.9289,-2.933,-2.9401,-2.9508,-2.9489,-2.9591,-2.9613,-2.972,-2.9738,-2.9897,-2.9924,-2.9944,-2.9948,-2.9948,-2.9946,-2.9991,-2.9978,-2.9949,-2.9947,-2.9946,-2.9944,0,-2.8909,-2.8938,-2.9112,-2.9194,-2.9218,-2.9331,-2.9402,-2.9498,-2.9528,-2.9664,-2.9697,-2.9745,-2.9869,-2.9899,-3.0047,-3.006,-3.0248,-3.0236,-3.0219,-3.022,-3.0332,-3.0322,-3.0687,-3.0736,-3.0427,-3.043,-3.0433,0,-2.9066,-2.9174,-2.9267,-2.9337,-2.9387,-2.9499,-2.9571,-2.9586,-2.9661,-2.9766,-2.985,-2.997,-3.0069,-3.0268,-3.0317,-3.043,-3.0423,-3.0543,-3.044,-3.0436,-3.0427,-3.0422,-3.0433,-3.0564,-3.0567,-3.0569,-3.0572,0,-2.9343,-2.9351,-2.9454,-2.9563,-2.9648,-2.9735,-2.9817,-2.9876,-2.9902,-2.9988,-3.0114,-3.0189,-3.0339,-3.0461,-3.0574,-3.0623,-3.0603,-3.0603,-3.0635,-3.0638,-3.0625,-3.0636,-3.0276,-3.0595,-3.0593,-3.0591,-3.059,-3.0589,-2.9539,-2.9634,-2.9714,-2.9829,-2.9892,-2.997,-3.0064,-3.0105,-3.0209,-3.0332,-3.0334,-3.0472,-3.0554,-3.0703,-3.0758,-3.0867,-3.083,-3.0877,-3.0889,-3.0901,-3.0912,-3.0604,-3.0887,-3.0886,-3.0886,-3.0885,-3.0885,0,-2.9817,-2.9866,-2.9972,-3.0087,-3.0178,-3.0148,-3.0238,-3.0316,-3.0437,-3.0514,-3.061,-3.0755,-3.0871,-3.0929,-3.1045,-3.112,-3.1114,-3.115,-3.1147,-3.1159,-3.0937,-3.0899,-3.1154,-3.1153,-3.1153,-3.1153,-3.1153,-3.1153,-2.9972,-3.0131,-3.0149,-3.0339,-3.0388,-3.0521,-3.0575,-3.0647,-3.0708,-3.087,-3.0966,-3.1002,-3.1072,-3.1192,-3.1298,-3.1312,-3.1357,-3.1399,-3.1408,-3.1201,-3.1174,-3.1148,-3.1112,-3.1407,-3.1408,-3.1621,-3.1623,-3.1624]},{"header":{"parameterUnit":"m.s-1","parameterCategory":1,"la1":30.2991,"la2":30.254,"lo1":-89.0895,"lo2":-89.0444,"dy":0.0017,"dx":0.0017,"nx":28,"ny":28,"refTime":"2024-03-10T03:00:00:Z","depth":0,"parameterNumber":3,"parameterNumberName":"V-component_of_WINDS"},"data":[0,0,0,0,0,0,0,0,0,0,0,0,0,0,0,0,0,0,0,0,0,0,0,0,0,0,0,0,0,0,0,0,0,0,0,0,0,0,0,0,0,0,0,0,0,0,0,0,0,0,0,0,0,0,0,0,0,0,-3.5324,-3.5325,0,-3.5425,-3.5426,-3.5427,-3.5385,-3.5382,-3.538,-3.5378,-3.5482,-3.5487,-3.5492,0,0,0,0,0,0,0,0,0,0,0,0,0,-3.5094,-3.5099,-3.5324,-3.5325,-3.5326,-3.5424,-3.5426,-3.5427,-3.5385,-3.5382,-3.5379,-3.5377,-3.548,-3.5486,-3.5492,0,0,0,0,0,0,0,0,0,0,0,0,0,-3.5194,-3.51,-3.5324,-3.5317,-3.5318,-3.5424,-3.5426,-3.5428,-3.5386,-3.5382,-3.5379,-3.5375,-3.5478,-3.5485,-3.5493,-3.5612,0,0,-3.5516,-3.5519,0,0,0,0,0,0,0,0,-3.5189,-3.5203,-3.5317,-3.5318,-3.5318,-3.5388,-3.5383,-3.5489,-3.5387,-3.536,-3.5378,-3.5373,-3.5454,-3.5463,-3.549,-3.5617,-3.5621,-3.5516,-3.5521,-3.5524,-3.5526,0,0,0,0,0,0,0,-3.5182,-3.5198,-3.5364,-3.5319,-3.532,-3.5309,-3.5319,-3.5403,-3.5426,-3.5362,-3.5359,-3.5372,-3.5453,-3.5483,-3.5492,-3.5623,-3.5516,-3.5523,-3.5528,-3.5531,-3.5851,-3.5855,0,0,0,0,0,0,-3.5175,-3.5193,-3.536,-3.5367,-3.5243,-3.5316,-3.5327,-3.537,-3.5425,-3.543,-3.5375,-3.5369,-3.5472,-3.5483,-3.5495,-3.5638,-3.5524,-3.5531,-3.5536,-3.5847,-3.5852,-3.5856,0,0,0,0,0,0,-3.517,-3.519,-3.5356,-3.5279,-3.5299,-3.5324,-3.5372,-3.5374,-3.5403,-3.5434,-3.5438,-3.54,-3.5469,-3.5485,-3.5583,-3.5641,-3.5535,-3.5542,-3.5842,-3.5848,-3.5854,-3.5924,0,0,0,0,0,0,-3.5164,-3.5189,-3.5235,-3.528,-3.5304,-3.5443,-3.5375,-3.5378,-3.5416,-3.541,-3.546,-3.5464,-3.5468,-3.5572,-3.559,-3.5649,-3.5547,-3.5837,-3.5845,-3.5852,-3.5917,-3.5932,-3.5944,0,0,0,0,0,-3.5156,-3.5251,-3.5237,-3.5258,-3.5362,-3.5446,-3.5459,-3.5461,-3.5421,-3.5467,-3.5487,-3.5463,-3.5631,-3.5582,-3.5603,-3.5665,-3.5833,-3.5843,-3.5851,-3.591,-3.5929,-3.5944,0,0,0,0,0,0,-3.5212,-3.5257,-3.5242,-3.5355,-3.5397,-3.5439,-3.5497,-3.548,-3.5535,-3.5527,-3.5526,-3.5538,-3.5639,-3.5662,-3.5606,-3.5782,-3.5726,-3.574,-3.5764,-3.5782,-3.5795,-3.5788,-3.5554,0,0,0,0,0,-3.5238,-3.5303,-3.5338,-3.5434,-3.5456,-3.5473,-3.551,-3.5507,-3.5551,-3.5568,-3.5596,-3.5639,-3.5701,-3.5743,-3.5802,-3.5919,-3.5929,-3.5972,-3.5986,-3.5997,-3.6009,-3.6072,-3.6091,-3.5885,-3.5885,-3.5885,0,0,-3.5291,-3.5324,-3.5365,-3.5446,-3.5479,-3.5546,-3.5488,-3.5562,-3.5612,-3.558,-3.5674,-3.5695,-3.5743,-3.5851,-3.59,-3.5873,-3.6067,-3.6008,-3.6017,-3.6023,-3.6083,-3.6102,-3.6119,-3.5891,-3.589,-3.5889,0,0,-3.5423,-3.5455,-3.5538,-3.5571,-3.562,-3.563,-3.565,-3.5694,-3.5707,-3.5801,-3.5778,-3.5836,-3.5944,-3.5979,-3.6011,-3.6154,-3.6134,-3.6173,-3.6246,-3.6307,-3.6324,-3.6338,-3.6389,-3.6407,-3.6185,-3.6185,-3.6185,0,-3.5484,-3.5584,-3.5583,-3.5658,-3.5694,-3.5667,-3.5751,-3.5783,-3.5849,-3.5874,-3.5843,-3.5976,-3.6007,-3.6122,-3.6157,-3.6183,-3.6206,-3.6168,-3.6321,-3.6336,-3.6349,-3.6397,-3.6416,-3.6189,-3.6189,-3.6188,-3.6188,0,-3.5656,-3.5726,-3.5787,-3.5851,-3.5893,-3.5973,-3.5982,-3.6026,-3.6019,-3.6032,-3.6128,-3.6163,-3.6228,-3.6255,-3.6249,-3.6369,-3.6351,-3.632,-3.6264,-3.6373,-3.6418,-3.6437,-3.6196,-3.6194,-3.6193,-3.6192,0,0,-3.5829,-3.5889,-3.5911,-3.5939,-3.599,-3.6044,-3.6121,-3.6185,-3.6222,-3.6267,-3.6332,-3.6423,-3.6394,-3.6431,-3.6428,-3.6482,-3.6592,-3.6444,-3.6445,-3.6471,-3.6725,-3.6748,-3.677,-3.6578,-3.6582,-3.6584,-3.6721,0,-3.5965,-3.61,-3.61,-3.6225,-3.6289,-3.6263,-3.633,-3.6368,-3.6382,-3.6438,-3.6453,-3.6518,-3.6475,-3.6497,-3.6549,-3.6567,-3.6643,-3.6557,-3.6638,-3.6641,-3.6628,-3.6794,-3.6819,-3.6946,-3.6739,-3.6742,-3.6744,0,-3.6142,-3.6193,-3.6324,-3.6364,-3.6391,-3.6451,-3.6508,-3.6562,-3.6605,-3.6611,-3.665,-3.6639,-3.6717,-3.6658,-3.6765,-3.6706,-3.6739,-3.6753,-3.6758,-3.6766,-3.67,-3.6807,-3.6987,-3.7006,-3.6772,-3.677,-3.6768,0,-3.6254,-3.6355,-3.6447,-3.6471,-3.6521,-3.6564,-3.6586,-3.6625,-3.6662,-3.6712,-3.6736,-3.6795,-3.6827,-3.6872,-3.6877,-3.6833,-3.6984,-3.6926,-3.6992,-3.6992,-3.7026,-3.7024,-3.7214,-3.7046,-3.7046,-3.7045,-3.7045,0,-3.6407,-3.6488,-3.6498,-3.6554,-3.6644,-3.6642,-3.6731,-3.6749,-3.6784,-3.6843,-3.6824,-3.6879,-3.6882,-3.6939,-3.6943,-3.703,-3.7045,-3.7052,-3.7052,-3.7054,-3.7054,-3.7077,-3.7068,-3.7051,-3.7049,-3.7048,-3.7048,0,-3.6548,-3.6558,-3.6656,-3.6694,-3.6705,-3.6769,-3.6802,-3.6855,-3.6866,-3.6941,-3.6959,-3.6977,-3.7043,-3.7051,-3.7128,-3.7131,-3.7236,-3.7227,-3.7222,-3.7221,-3.7287,-3.728,-3.7499,-3.7528,-3.7341,-3.7342,-3.7344,0,-3.6645,-3.6707,-3.6751,-3.6789,-3.6813,-3.6875,-3.6913,-3.6912,-3.6953,-3.7004,-3.7051,-3.7115,-3.7166,-3.7272,-3.7292,-3.7351,-3.7343,-3.7416,-3.7352,-3.7351,-3.7344,-3.7341,-3.7347,-3.7428,-3.743,-3.7432,-3.7433,0,-3.6816,-3.6817,-3.6872,-3.6929,-3.6974,-3.7019,-3.7061,-3.7093,-3.7098,-3.7144,-3.7211,-3.725,-3.7328,-3.7392,-3.7449,-3.7472,-3.7454,-3.7453,-3.7471,-3.7474,-3.7469,-3.7473,-3.7256,-3.7448,-3.7447,-3.7446,-3.7445,-3.7444,-3.6938,-3.6991,-3.703,-3.7092,-3.7123,-3.7162,-3.7214,-3.7231,-3.7287,-3.735,-3.7346,-3.7419,-3.7459,-3.7534,-3.756,-3.7617,-3.7594,-3.762,-3.7627,-3.7634,-3.7641,-3.7459,-3.7628,-3.7627,-3.7627,-3.7627,-3.7626,0,-3.7108,-3.7131,-3.7188,-3.7247,-3.7295,-3.7272,-3.7317,-3.7359,-3.7424,-3.7461,-3.7512,-3.7588,-3.7648,-3.7672,-3.7732,-3.7773,-3.7766,-3.7788,-3.7786,-3.7791,-3.7659,-3.7637,-3.7793,-3.7793,-3.7793,-3.7793,-3.7793,-3.7793,-3.7202,-3.7291,-3.7296,-3.7399,-3.7422,-3.7493,-3.7521,-3.7557,-3.7587,-3.7672,-3.7722,-3.7737,-3.7769,-3.783,-3.7885,-3.789,-3.7913,-3.794,-3.7942,-3.7817,-3.7801,-3.7785,-3.7764,-3.7945,-3.7945,-3.8069,-3.807,-3.8071]}]]